QPF
0.07 0.06 0.05 0.05 0.06 0.06 0.04 0.03 0.03 0.03 0.02 0.03 0.04 0.05 0.06 0.06 0.06 0.06 0.05 0.06 0.04 0.03 0.03 0.04 0.05 0.05 0.04 0.04 0.05 0.04 0.04 0.04 0.02 0.02 0.01 0.02 0.02 0.02 0.03 0.03 0.02 0.02 0.02
0.09 0.07 0.06 0.05 0.04 0.04 0.03 0.03 0.04 0.05 0.06 0.05 0.05 0.05 0.06 0.06 0.07 0.07 0.05 0.05 0.04 0.04 0.05 0.04 0.03 0.03 0.02 0.03 0.04 0.04 0.03 0.04 0.03 0.02 0.01 0.02 0.02 0.03 0.02 0.02 0.01 0.01 0.01
0.21 0.12 0.08 0.07 0.04 0.03 0.03 0.04 0.05 0.06 0.06 0.05 0.04 0.03 0.04 0.06 0.07 0.07 0.07 0.06 0.04 0.04 0.05 0.04 0.03 0.04 0.03 0.04 0.04 0.04 0.03 0.03 0.03 0.02 0.01 0.02 0.02 0.03 0.02 0.01 0.01 0.01 0.01
0.17 0.10 0.08 0.06 0.04 0.04 0.04 0.06 0.08 0.07 0.06 0.05 0.03 0.03 0.03 0.05 0.07 0.07 0.07 0.06 0.05 0.04 0.03 0.03 0.03 0.03 0.04 0.04 0.04 0.04 0.04 0.04 0.04 0.03 0.02 0.02 0.02 0.02 0.02 0.01 0.01 0.01 0.01
0.08 0.09 0.10 0.09 0.08 0.08 0.06 0.05 0.06 0.06 0.05 0.05 0.04 0.04 0.05 0.05 0.04 0.04 0.05 0.07 0.06 0.04 0.03 0.03 0.03 0.04 0.05 0.05 0.05 0.05 0.05 0.05 0.04 0.04 0.04 0.03 0.02 0.01 0.01 0.02 0.02 0.02 0.02
0.07 0.09 0.08 0.08 0.08 0.09 0.10 0.08 0.06 0.05 0.06 0.07 0.06 0.05 0.05 0.05 0.05 0.06 0.06 0.06 0.06 0.05 0.04 0.04 0.04 0.04 0.05 0.05 0.06 0.06 0.06 0.05 0.05 0.04 0.04 0.03 0.02 0.02 0.02 0.02 0.02 0.02 0.01
0.05 0.06 0.08 0.09 0.09 0.07 0.08 0.09 0.08 0.07 0.07 0.06 0.06 0.05 0.04 0.04 0.05 0.06 0.07 0.06 0.05 0.04 0.04 0.04 0.05 0.04 0.05 0.05 0.05 0.04 0.04 0.04 0.03 0.04 0.03 0.02 0.02 0.02 0.03 0.03 0.02 0.02 0.02
0.05 0.06 0.06 0.06 0.05 0.04 0.04 0.05 0.07 0.08 0.08 0.09 0.07 0.06 0.05 0.05 0.06 0.07 0.08 0.07 0.06 0.05 0.04 0.03 0.03 0.03 0.05 0.05 0.03 0.03 0.02 0.02 0.02 0.03 0.02 0.02 0.02 0.04 0.04 0.03 0.03 0.03 0.02
0.08 0.06 0.06 0.06 0.06 0.06 0.05 0.06 0.09 0.10 0.08 0.08 0.06 0.07 0.08 0.09 0.09 0.09 0.11 0.10 0.08 0.06 0.04 0.04 0.04 0.05 0.07 0.07 0.05 0.04 0.02 0.02 0.03 0.04 0.03 0.03 0.04 0.04 0.05 0.04 0.03 0.03 0.02
0.10 0.08 0.07 0.06 0.06 0.06 0.06 0.08 0.10 0.10 0.08 0.09 0.09 0.09 0.08 0.09 0.11 0.11 0.12 0.12 0.09 0.08 0.06 0.06 0.08 0.09 0.11 0.12 0.09 0.07 0.04 0.03 0.04 0.04 0.04 0.03 0.03 0.04 0.05 0.04 0.03 0.04 0.03
0.07 0.06 0.05 0.04 0.04 0.06 0.08 0.08 0.08 0.09 0.09 0.10 0.14 0.13 0.11 0.10 0.10 0.10 0.10 0.11 0.11 0.12 0.12 0.12 0.13 0.12 0.11 0.10 0.08 0.06 0.05 0.06 0.07 0.06 0.05 0.04 0.05 0.04 0.04 0.04 0.04 0.05 0.04
0.04 0.03 0.04 0.04 0.04 0.04 0.05 0.06 0.06 0.07 0.07 0.08 0.09 0.11 0.11 0.09 0.08 0.08 0.08 0.10 0.11 0.09 0.07 0.08 0.08 0.09 0.10 0.11 0.11 0.11 0.13 0.14 0.12 0.11 0.08 0.06 0.05 0.05 0.05 0.05 0.05 0.04 0.04
0.03 0.03 0.03 0.03 0.02 0.02 0.03 0.03 0.03 0.04 0.06 0.07 0.06 0.07 0.08 0.07 0.05 0.06 0.06 0.08 0.09 0.07 0.06 0.05 0.06 0.07 0.08 0.09 0.11 0.13 0.13 0.12 0.10 0.08 0.06 0.05 0.05 0.05 0.05 0.04 0.03 0.03 0.04
0.05 0.04 0.04 0.03 0.03 0.04 0.04 0.05 0.04 0.04 0.04 0.05 0.05 0.05 0.05 0.05 0.05 0.05 0.05 0.06 0.07 0.04 0.04 0.04 0.04 0.04 0.04 0.04 0.04 0.04 0.04 0.05 0.05 0.04 0.04 0.04 0.04 0.04 0.04 0.03 0.03 0.03 0.02
0.07 0.06 0.05 0.05 0.04 0.05 0.05 0.06 0.06 0.06 0.06 0.06 0.06 0.04 0.04 0.04 0.04 0.03 0.03 0.05 0.06 0.06 0.04 0.04 0.04 0.05 0.05 0.05 0.04 0.03 0.03 0.03 0.03 0.03 0.03 0.03 0.03 0.03 0.03 0.03 0.03 0.03 0.02
0.07 0.06 0.07 0.07 0.07 0.08 0.08 0.08 0.09 0.09 0.08 0.07 0.06 0.04 0.03 0.03 0.03 0.03 0.04 0.05 0.05 0.06 0.05 0.04 0.04 0.04 0.04 0.04 0.04 0.03 0.03 0.03 0.04 0.04 0.04 0.03 0.03 0.03 0.03 0.03 0.03 0.03 0.02
0.06 0.06 0.06 0.06 0.07 0.09 0.10 0.10 0.09 0.08 0.08 0.07 0.06 0.05 0.04 0.03 0.02 0.02 0.03 0.04 0.04 0.05 0.04 0.04 0.04 0.04 0.05 0.06 0.06 0.06 0.06 0.04 0.04 0.04 0.03 0.03 0.03 0.04 0.04 0.04 0.04 0.04 0.03
0.07 0.08 0.08 0.07 0.07 0.08 0.10 0.10 0.10 0.08 0.07 0.06 0.06 0.06 0.05 0.04 0.03 0.03 0.03 0.03 0.04 0.04 0.05 0.05 0.05 0.06 0.06 0.06 0.06 0.06 0.06 0.06 0.05 0.05 0.04 0.03 0.03 0.04 0.04 0.04 0.05 0.05 0.05
0.09 0.10 0.11 0.11 0.10 0.10 0.12 0.13 0.13 0.11 0.10 0.10 0.09 0.07 0.07 0.05 0.04 0.04 0.03 0.03 0.04 0.06 0.07 0.08 0.08 0.08 0.07 0.05 0.05 0.04 0.06 0.07 0.06 0.06 0.06 0.05 0.05 0.05 0.05 0.05 0.05 0.05 0.05
0.07 0.09 0.12 0.15 0.14 0.13 0.14 0.15 0.14 0.11 0.10 0.09 0.08 0.07 0.05 0.04 0.03 0.03 0.03 0.03 0.04 0.05 0.05 0.06 0.07 0.06 0.05 0.04 0.04 0.03 0.04 0.04 0.05 0.08 0.07 0.06 0.06 0.07 0.07 0.06 0.06 0.05 0.05
0.04 0.05 0.07 0.11 0.13 0.13 0.12 0.12 0.10 0.09 0.07 0.06 0.05 0.04 0.04 0.02 0.02 0.02 0.02 0.02 0.02 0.01 0.02 0.03 0.03 0.04 0.04 0.04 0.04 0.04 0.03 0.02 0.02 0.04 0.05 0.04 0.04 0.07 0.09 0.09 0.09 0.08 0.07
0.04 0.04 0.04 0.05 0.08 0.10 0.09 0.08 0.07 0.05 0.04 0.03 0.02 0.02 0.02 0.01 0.01 0.01 0.01 0.01 0.01 0.01 0.00 0.01 0.02 0.03 0.04 0.06 0.06 0.05 0.04 0.04 0.03 0.03 0.03 0.02 0.02 0.02 0.04 0.05 0.06 0.06 0.07
0.04 0.04 0.04 0.04 0.05 0.05 0.05 0.05 0.04 0.03 0.03 0.02 0.01 0.01 0.01 0.00 0.00 0.00 0.00 0.00 0.00 0.00 0.00 0.01 0.02 0.05 0.08 0.09 0.07 0.04 0.04 0.04 0.04 0.03 0.03 0.03 0.02 0.02 0.03 0.04 0.05 0.06 0.07
0.05 0.05 0.04 0.04 0.03 0.03 0.03 0.04 0.04 0.04 0.03 0.03 0.01 0.01 0.01 0.00 0.00 0.00 0.00 0.00 0.00 0.00 0.01 0.02 0.04 0.07 0.11 0.09 0.04 0.02 0.02 0.02 0.02 0.03 0.03 0.03 0.03 0.03 0.04 0.06 0.06 0.06 0.07
0.02 0.02 0.03 0.02 0.02 0.02 0.02 0.03 0.03 0.03 0.03 0.02 0.02 0.02 0.02 0.01 0.01 0.01 0.01 0.01 0.01 0.01 0.01 0.02 0.04 0.07 0.12 0.08 0.03 0.01 0.01 0.02 0.02 0.02 0.03 0.02 0.02 0.03 0.04 0.05 0.06 0.07 0.08
0.01 0.01 0.01 0.01 0.01 0.01 0.01 0.02 0.02 0.02 0.03 0.03 0.02 0.02 0.02 0.02 0.02 0.01 0.01 0.01 0.01 0.01 0.01 0.02 0.04 0.06 0.09 0.07 0.03 0.02 0.02 0.02 0.02 0.02 0.02 0.02 0.03 0.03 0.02 0.03 0.03 0.04 0.05
MSLP
1009.59 1009.46 1009.46 1009.54 1009.64 1009.72 1009.75 1009.72 1009.65 1009.57 1009.49 1009.44 1009.44 1009.47 1009.53 1009.60 1009.66 1009.71 1009.74 1009.78 1009.83 1009.94 1010.11 1010.37 1010.72 1011.14 1011.63 1012.13 1012.62 1013.07 1013.44 1013.73 1013.92 1014.03 1014.07 1014.06 1014.02 1013.98 1013.95 1013.94 1013.96 1014.03 1014.13
1010.02 1009.84 1009.77 1009.76 1009.79 1009.80 1009.79 1009.73 1009.65 1009.55 1009.46 1009.40 1009.35 1009.33 1009.32 1009.29 1009.25 1009.19 1009.12 1009.05 1009.02 1009.04 1009.16 1009.38 1009.71 1010.14 1010.65 1011.20 1011.76 1012.29 1012.77 1013.16 1013.46 1013.68 1013.82 1013.90 1013.94 1013.96 1013.97 1013.99 1014.03 1014.10 1014.21
1010.57 1010.36 1010.24 1010.17 1010.12 1010.07 1010.00 1009.91 1009.80 1009.68 1009.58 1009.49 1009.41 1009.33 1009.24 1009.13 1008.99 1008.82 1008.63 1008.46 1008.32 1008.27 1008.31 1008.48 1008.77 1009.18 1009.68 1010.25 1010.84 1011.43 1011.97 1012.44 1012.85 1013.17 1013.41 1013.60 1013.73 1013.84 1013.92 1014.01 1014.10 1014.21 1014.36
1011.14 1010.92 1010.77 1010.64 1010.53 1010.41 1010.28 1010.15 1010.01 1009.88 1009.76 1009.65 1009.54 1009.42 1009.26 1009.07 1008.84 1008.56 1008.28 1008.00 1007.77 1007.62 1007.58 1007.68 1007.90 1008.26 1008.72 1009.26 1009.85 1010.44 1011.00 1011.53 1012.00 1012.40 1012.75 1013.03 1013.28 1013.49 1013.68 1013.86 1014.04 1014.22 1014.43
1011.63 1011.43 1011.25 1011.08 1010.90 1010.72 1010.54 1010.36 1010.19 1010.04 1009.92 1009.79 1009.66 1009.51 1009.31 1009.06 1008.75 1008.40 1008.03 1007.66 1007.34 1007.11 1006.98 1006.99 1007.13 1007.41 1007.79 1008.26 1008.79 1009.34 1009.89 1010.42 1010.91 1011.37 1011.78 1012.16 1012.51 1012.84 1013.15 1013.44 1013.73 1014.02 1014.31
1011.99 1011.80 1011.60 1011.38 1011.15 1010.91 1010.67 1010.45 1010.26 1010.10 1009.97 1009.85 1009.71 1009.55 1009.32 1009.04 1008.69 1008.28 1007.84 1007.41 1007.03 1006.71 1006.51 1006.43 1006.48 1006.65 1006.93 1007.30 1007.73 1008.20 1008.68 1009.16 1009.64 1010.11 1010.57 1011.01 1011.45 1011.89 1012.31 1012.73 1013.14 1013.54 1013.93
1012.19 1012.01 1011.78 1011.52 1011.23 1010.93 1010.65 1010.40 1010.19 1010.02 1009.89 1009.78 1009.65 1009.49 1009.27 1008.97 1008.60 1008.17 1007.70 1007.24 1006.80 1006.44 1006.17 1006.01 1005.97 1006.03 1006.20 1006.44 1006.75 1007.10 1007.48 1007.88 1008.31 1008.75 1009.21 1009.69 1010.19 1010.70 1011.23 1011.75 1012.27 1012.78 1013.28
1012.24 1012.05 1011.80 1011.49 1011.15 1010.81 1010.48 1010.20 1009.98 1009.82 1009.69 1009.59 1009.48 1009.34 1009.13 1008.84 1008.48 1008.05 1007.59 1007.11 1006.67 1006.28 1005.97 1005.76 1005.64 1005.61 1005.66 1005.78 1005.96 1006.18 1006.43 1006.73 1007.06 1007.44 1007.87 1008.35 1008.87 1009.42 1010.01 1010.61 1011.22 1011.82 1012.40
1012.18 1011.97 1011.69 1011.35 1010.96 1010.58 1010.23 1009.93 1009.70 1009.54 1009.42 1009.34 1009.24 1009.12 1008.93 1008.66 1008.32 1007.93 1007.49 1007.04 1006.61 1006.23 1005.92 1005.67 1005.51 1005.41 1005.37 1005.38 1005.43 1005.52 1005.65 1005.83 1006.06 1006.35 1006.72 1007.15 1007.64 1008.20 1008.80 1009.44 1010.09 1010.75 1011.40
1012.03 1011.81 1011.50 1011.13 1010.73 1010.32 1009.96 1009.65 1009.42 1009.26 1009.15 1009.07 1008.99 1008.87 1008.70 1008.47 1008.17 1007.81 1007.42 1007.02 1006.64 1006.30 1006.00 1005.76 1005.58 1005.44 1005.33 1005.26 1005.21 1005.18 1005.20 1005.26 1005.38 1005.57 1005.84 1006.20 1006.64 1007.16 1007.73 1008.35 1009.01 1009.68 1010.36
1011.83 1011.60 1011.28 1010.90 1010.49 1010.09 1009.72 1009.42 1009.19 1009.03 1008.92 1008.84 1008.76 1008.66 1008.51 1008.30 1008.04 1007.73 1007.40 1007.07 1006.75 1006.46 1006.21 1006.00 1005.82 1005.66 1005.51 1005.38 1005.25 1005.13 1005.05 1005.00 1005.01 1005.10 1005.28 1005.54 1005.90 1006.34 1006.85 1007.42 1008.04 1008.68 1009.34
1011.58 1011.34 1011.04 1010.67 1010.28 1009.90 1009.56 1009.27 1009.05 1008.89 1008.78 1008.70 1008.61 1008.50 1008.36 1008.17 1007.95 1007.70 1007.43 1007.17 1006.92 1006.70 1006.50 1006.33 1006.16 1006.00 1005.83 1005.65 1005.46 1005.28 1005.11 1004.98 1004.90 1004.89 1004.97 1005.14 1005.40 1005.75 1006.17 1006.66 1007.20 1007.78 1008.39
1011.27 1011.06 1010.78 1010.45 1010.10 1009.76 1009.46 1009.20 1009.00 1008.85 1008.73 1008.63 1008.54 1008.42 1008.28 1008.11 1007.92 1007.71 1007.51 1007.31 1007.13 1006.97 1006.82 1006.68 1006.53 1006.37 1006.18 1005.96 1005.73 1005.49 1005.25 1005.05 1004.90 1004.81 1004.81 1004.89 1005.06 1005.31 1005.64 1006.03 1006.47 1006.97 1007.50
1010.92 1010.73 1010.49 1010.22 1009.94 1009.66 1009.41 1009.19 1009.01 1008.87 1008.75 1008.64 1008.52 1008.40 1008.25 1008.10 1007.93 1007.77 1007.61 1007.47 1007.35 1007.23 1007.12 1006.99 1006.85 1006.67 1006.45 1006.20 1005.92 1005.63 1005.35 1005.09 1004.89 1004.74 1004.68 1004.69 1004.78 1004.95 1005.18 1005.47 1005.82 1006.22 1006.66
1010.51 1010.36 1010.18 1009.98 1009.77 1009.57 1009.37 1009.21 1009.06 1008.92 1008.80 1008.67 1008.55 1008.41 1008.26 1008.12 1007.97 1007.84 1007.72 1007.62 1007.53 1007.44 1007.33 1007.20 1007.04 1006.83 1006.57 1006.28 1005.96 1005.62 1005.30 1005.01 1004.77 1004.59 1004.48 1004.45 1004.48 1004.58 1004.74 1004.95 1005.20 1005.50 1005.85
1010.07 1009.97 1009.85 1009.72 1009.59 1009.46 1009.33 1009.21 1009.09 1008.96 1008.84 1008.71 1008.57 1008.42 1008.28 1008.14 1008.02 1007.91 1007.81 1007.73 1007.65 1007.56 1007.45 1007.29 1007.08 1006.83 1006.52 1006.17 1005.80 1005.43 1005.08 1004.76 1004.51 1004.31 1004.19 1004.13 1004.14 1004.19 1004.30 1004.44 1004.61 1004.82 1005.07
1009.63 1009.57 1009.51 1009.45 1009.39 1009.33 1009.26 1009.17 1009.08 1008.97 1008.84 1008.70 1008.56 1008.41 1008.27 1008.14 1008.03 1007.94 1007.86 1007.79 1007.71 1007.60 1007.45 1007.25 1006.99 1006.68 1006.31 1005.91 1005.50 1005.10 1004.73 1004.41 1004.15 1003.96 1003.84 1003.78 1003.77 1003.80 1003.86 1003.95 1004.06 1004.19 1004.35
1009.22 1009.20 1009.19 1009.19 1009.19 1009.18 1009.15 1009.10 1009.02 1008.92 1008.79 1008.64 1008.49 1008.34 1008.20 1008.08 1007.98 1007.90 1007.84 1007.76 1007.67 1007.54 1007.36 1007.11 1006.80 1006.44 1006.02 1005.58 1005.14 1004.72 1004.35 1004.03 1003.79 1003.61 1003.50 1003.44 1003.43 1003.44 1003.47 1003.51 1003.56 1003.63 1003.72
1008.86 1008.87 1008.91 1008.95 1008.99 1009.01 1009.01 1008.97 1008.90 1008.79 1008.66 1008.51 1008.35 1008.19 1008.06 1007.95 1007.86 1007.79 1007.72 1007.65 1007.54 1007.39 1007.18 1006.90 1006.56 1006.16 1005.72 1005.26 1004.81 1004.40 1004.03 1003.73 1003.51 1003.35 1003.25 1003.20 1003.18 1003.17 1003.17 1003.16 1003.16 1003.16 1003.18
1008.56 1008.59 1008.64 1008.71 1008.77 1008.81 1008.82 1008.79 1008.71 1008.59 1008.44 1008.28 1008.11 1007.95 1007.82 1007.71 1007.63 1007.56 1007.50 1007.43 1007.32 1007.16 1006.94 1006.65 1006.29 1005.89 1005.45 1005.00 1004.57 1004.18 1003.85 1003.58 1003.37 1003.23 1003.14 1003.08 1003.04 1003.00 1002.96 1002.90 1002.84 1002.78 1002.74
1008.27 1008.32 1008.38 1008.46 1008.53 1008.57 1008.57 1008.52 1008.43 1008.29 1008.13 1007.95 1007.77 1007.60 1007.46 1007.36 1007.28 1007.22 1007.16 1007.09 1006.99 1006.84 1006.62 1006.35 1006.02 1005.64 1005.24 1004.83 1004.45 1004.10 1003.81 1003.57 1003.39 1003.26 1003.16 1003.09 1003.01 1002.92 1002.81 1002.69 1002.56 1002.44 1002.34
1007.97 1008.02 1008.08 1008.16 1008.22 1008.24 1008.23 1008.16 1008.04 1007.88 1007.70 1007.50 1007.30 1007.13 1006.98 1006.88 1006.80 1006.74 1006.70 1006.64 1006.55 1006.42 1006.24 1006.01 1005.72 1005.40 1005.06 1004.72 1004.40 1004.12 1003.87 1003.67 1003.51 1003.38 1003.26 1003.15 1003.01 1002.86 1002.68 1002.49 1002.29 1002.09 1001.93
1007.60 1007.64 1007.70 1007.76 1007.80 1007.80 1007.76 1007.67 1007.53 1007.35 1007.14 1006.93 1006.72 1006.54 1006.40 1006.29 1006.21 1006.16 1006.13 1006.09 1006.03 1005.93 1005.80 1005.62 1005.40 1005.15 1004.89 1004.63 1004.38 1004.16 1003.97 1003.80 1003.65 1003.50 1003.35 1003.18 1002.98 1002.75 1002.49 1002.21 1001.94 1001.68 1001.46
1007.15 1007.18 1007.22 1007.26 1007.27 1007.25 1007.19 1007.07 1006.91 1006.72 1006.50 1006.28 1006.07 1005.89 1005.75 1005.64 1005.57 1005.53 1005.51 1005.49 1005.46 1005.40 1005.31 1005.19 1005.04 1004.87 1004.69 1004.50 1004.33 1004.16 1004.00 1003.86 1003.70 1003.53 1003.34 1003.10 1002.83 1002.52 1002.18 1001.82 1001.47 1001.15 1000.89
1006.62 1006.63 1006.65 1006.66 1006.65 1006.61 1006.52 1006.40 1006.23 1006.03 1005.82 1005.61 1005.41 1005.24 1005.11 1005.01 1004.96 1004.93 1004.92 1004.91 1004.90 1004.88 1004.83 1004.76 1004.67 1004.56 1004.44 1004.31 1004.19 1004.06 1003.92 1003.78 1003.61 1003.41 1003.16 1002.87 1002.52 1002.14 1001.72 1001.30 1000.89 1000.52 1000.21
1006.04 1006.03 1006.03 1006.02 1005.99 1005.94 1005.84 1005.71 1005.56 1005.38 1005.18 1005.00 1004.83 1004.68 1004.57 1004.49 1004.45 1004.43 1004.43 1004.43 1004.43 1004.42 1004.40 1004.35 1004.29 1004.22 1004.14 1004.04 1003.94 1003.83 1003.70 1003.54 1003.35 1003.11 1002.81 1002.46 1002.05 1001.60 1001.13 1000.65 1000.20 999.79 999.45
Thickness
5783 5780 5777 5774 5773 5770 5768 5766 5765 5764 5762 5759 5757 5755 5753 5752 5750 5748 5746 5745 5743 5741 5740 5739 5738 5737 5736 5735 5734 5731 5729 5727 5724 5726 5727 5728 5727 5727 5727 5726 5725 5724 5723
5781 5778 5774 5772 5769 5767 5766 5764 5763 5761 5759 5757 5755 5753 5751 5750 5748 5745 5743 5742 5740 5739 5738 5737 5736 5735 5734 5732 5731 5729 5727 5726 5723 5721 5722 5722 5722 5722 5722 5721 5720 5719 5718
5778 5774 5770 5767 5765 5763 5762 5761 5759 5757 5755 5753 5752 5750 5749 5747 5745 5744 5741 5739 5738 5737 5736 5734 5734 5732 5730 5729 5728 5727 5725 5724 5721 5719 5718 5718 5717 5717 5716 5715 5715 5713 5713
5774 5771 5767 5764 5762 5760 5758 5757 5755 5753 5751 5749 5747 5746 5745 5743 5741 5740 5738 5736 5735 5734 5733 5732 5730 5729 5727 5726 5725 5723 5722 5719 5717 5715 5713 5712 5711 5711 5710 5708 5707 5707 5706
5770 5766 5764 5761 5758 5756 5754 5752 5751 5748 5747 5745 5743 5741 5739 5738 5737 5736 5734 5732 5729 5729 5729 5728 5727 5726 5725 5724 5722 5719 5717 5714 5712 5710 5708 5706 5705 5704 5703 5703 5702 5701 5700
5764 5761 5759 5756 5753 5751 5749 5746 5744 5742 5740 5739 5737 5735 5733 5733 5732 5731 5729 5727 5725 5723 5722 5722 5721 5720 5720 5719 5717 5716 5714 5710 5708 5705 5703 5701 5701 5699 5698 5697 5695 5693 5692
5756 5754 5752 5750 5747 5745 5743 5739 5737 5734 5733 5731 5731 5729 5728 5728 5727 5725 5723 5721 5719 5717 5715 5715 5714 5714 5713 5711 5709 5708 5707 5706 5704 5702 5699 5698 5696 5695 5692 5690 5689 5688 5688
5747 5745 5743 5742 5739 5737 5735 5732 5730 5727 5726 5724 5723 5722 5720 5719 5718 5717 5716 5713 5711 5710 5709 5707 5706 5705 5704 5703 5701 5699 5698 5697 5696 5695 5694 5694 5692 5690 5688 5686 5684 5682 5681
5736 5735 5735 5733 5730 5728 5727 5724 5722 5720 5718 5717 5715 5714 5713 5711 5710 5708 5706 5703 5701 5700 5699 5699 5698 5697 5695 5693 5691 5690 5688 5688 5688 5687 5686 5685 5684 5682 5680 5678 5676 5674 5673
5727 5726 5725 5724 5721 5720 5718 5716 5714 5712 5710 5709 5707 5706 5704 5703 5702 5700 5698 5694 5691 5690 5690 5690 5690 5689 5687 5685 5682 5681 5679 5679 5678 5678 5676 5675 5674 5673 5672 5671 5669 5667 5665
5719 5717 5715 5714 5712 5712 5709 5707 5705 5704 5701 5699 5696 5695 5694 5693 5691 5690 5688 5686 5682 5681 5680 5680 5681 5680 5677 5675 5674 5673 5672 5670 5669 5668 5667 5666 5665 5664 5663 5662 5661 5660 5658
5709 5706 5704 5704 5704 5703 5700 5698 5696 5694 5691 5688 5686 5685 5685 5683 5682 5681 5678 5675 5673 5671 5670 5670 5670 5669 5667 5666 5664 5664 5662 5660 5658 5657 5657 5657 5656 5655 5654 5653 5652 5652 5652
5695 5694 5693 5693 5693 5692 5691 5688 5686 5683 5680 5677 5676 5674 5673 5672 5671 5670 5667 5664 5662 5660 5659 5659 5658 5657 5655 5654 5654 5653 5651 5650 5648 5647 5647 5647 5647 5646 5644 5643 5642 5642 5641
5684 5682 5681 5680 5680 5680 5679 5678 5675 5672 5670 5668 5666 5664 5662 5660 5659 5658 5655 5653 5651 5649 5648 5647 5646 5645 5644 5643 5643 5642 5641 5639 5638 5638 5638 5637 5636 5635 5634 5634 5632 5632 5631
5673 5671 5670 5669 5668 5667 5666 5664 5663 5662 5660 5658 5656 5654 5652 5649 5647 5645 5643 5641 5639 5638 5636 5635 5634 5634 5634 5633 5632 5631 5630 5628 5626 5626 5626 5626 5625 5624 5623 5623 5622 5622 5622
5661 5659 5658 5658 5656 5655 5653 5651 5650 5649 5647 5645 5644 5642 5640 5638 5635 5633 5631 5630 5628 5625 5624 5623 5622 5623 5623 5622 5621 5620 5619 5617 5616 5614 5614 5614 5614 5614 5613 5613 5612 5612 5612
5651 5649 5648 5647 5646 5644 5642 5640 5637 5635 5633 5632 5631 5629 5627 5625 5623 5622 5620 5618 5617 5615 5613 5612 5612 5611 5611 5610 5609 5608 5607 5606 5604 5604 5604 5604 5604 5604 5603 5603 5603 5603 5603
5640 5640 5638 5637 5635 5634 5631 5629 5627 5625 5622 5620 5618 5616 5615 5613 5612 5611 5609 5608 5606 5604 5603 5602 5601 5600 5599 5598 5597 5596 5595 5595 5594 5593 5594 5593 5593 5593 5593 5593 5593 5593 5593
5630 5629 5628 5626 5625 5623 5622 5619 5616 5614 5610 5608 5607 5604 5602 5601 5600 5598 5597 5597 5596 5594 5592 5591 5590 5589 5587 5586 5585 5585 5585 5584 5583 5583 5582 5581 5582 5582 5582 5583 5584 5582 5582
5621 5621 5620 5618 5616 5614 5612 5609 5606 5603 5601 5598 5596 5594 5592 5590 5589 5587 5585 5585 5584 5583 5581 5580 5578 5577 5576 5575 5574 5574 5574 5574 5573 5572 5572 5571 5571 5572 5573 5573 5574 5574 5573
5612 5612 5612 5610 5607 5605 5601 5598 5595 5593 5591 5589 5587 5585 5582 5582 5580 5578 5576 5575 5573 5572 5570 5569 5568 5567 5566 5564 5564 5564 5563 5563 5563 5562 5562 5562 5562 5562 5563 5563 5563 5563 5563
5603 5602 5602 5600 5598 5594 5592 5589 5586 5585 5583 5581 5578 5576 5573 5572 5571 5569 5568 5566 5565 5563 5561 5559 5559 5558 5556 5555 5554 5554 5554 5554 5553 5552 5552 5551 5551 5552 5553 5554 5554 5553 5553
5594 5594 5592 5590 5588 5585 5583 5581 5578 5576 5574 5572 5570 5568 5566 5564 5563 5561 5560 5559 5557 5555 5553 5551 5550 5549 5548 5547 5546 5545 5545 5544 5544 5543 5542 5542 5542 5543 5544 5544 5544 5544 5544
5587 5586 5584 5582 5580 5578 5576 5574 5571 5569 5567 5565 5562 5560 5558 5556 5555 5554 5552 5551 5549 5547 5546 5544 5543 5542 5541 5540 5539 5538 5537 5536 5535 5534 5533 5533 5533 5534 5534 5534 5534 5534 5534
5580 5578 5577 5575 5573 5571 5569 5567 5564 5562 5559 5558 5556 5553 5551 5549 5548 5547 5545 5543 5542 5541 5540 5538 5536 5535 5534 5533 5532 5531 5529 5528 5527 5527 5526 5525 5524 5524 5524 5524 5524 5524 5523
5572 5571 5569 5567 5565 5563 5561 5559 5556 5554 5552 5551 5549 5547 5545 5543 5541 5539 5538 5536 5535 5535 5533 5532 5530 5529 5527 5526 5525 5523 5522 5520 5519 5518 5517 5516 5516 5515 5515 5515 5515 5514 5513